Location: Cheyres
(46.8153°N, 6.7877°E)
Time: 12:12:45
(UTC+00:00)

Cosmos 1680 Rocket - Pass Details

Date: 11 May 2021
Orbit: 759 x 781 km, 74.1° (Epoch: 19 June)

Event Time Altitude Azimuth Distance (km) Brightness Sun altitude
Rises 22:06:02 0° 334° (NNW) 3,276 8.3 -22.4°
Reaches altitude 10° 22:08:28 10° 331° (NNW) 2,345 7.1 -22.6°
Maximum altitude 22:13:41 58° 253° (WSW) 906 3.8 -22.9°
Enters shadow 22:14:51 47° 206° (SSW) 1,027 3.8 -22.9°
